Guymon, OK

6:55 PM CDT on April 23, 2017 (GMT -0500)
Guymon Municipal

Weather History for KGUY - August, 2012

Change the Weather History Date:

Wednesday, August 22, 2012

  Actual Average Record
Temperature  
Mean Temperature 74 °F 78 °F  
Max Temperature 89 °F 91 °F 102 °F (2011)
Min Temperature 59 °F 64 °F 59 °F (2012)
Degree Days  
Heating Degree Days 0 0  
Month to date heating degree days 0 0  
Since 1 June heating degree days 0 8  
Since 1 July heating degree days 0 0  
Cooling Degree Days 9 13  
Month to date cooling degree days 321 300  
Year to date cooling degree days 1597 1142  
Since 1 June cooling degree days 1332 1034  
Growing Degree Days 24 (Base 50)    
Moisture  
Dew Point 60 °F    
Average Humidity 67    
Maximum Humidity 97    
Minimum Humidity 36    
Precipitation  
Precipitation 0.00 in 0.11 in 1.00 in (2005)
Month to date precipitation 0.24 2.05  
Year to date precipitation 8.76 13.90  
Snow  
Snow 0.00 in - - ()
Month to date snowfall 0.0  
Since 1 June snowfall 0.0  
Since 1 July snowfall 0.0  
Snow Depth 0.00 in    
Sea Level Pressure  
Sea Level Pressure 29.92 in    
Wind  
Wind Speed 14 mph (South)    
Max Wind Speed 25 mph    
Max Gust Speed 32 mph    
Visibility 9 miles    
Events      
T = Trace of Precipitation, MM = Missing Value Source: NWS Daily Summary

Daily Weather History Graph

Daily Weather History Graph

Search for Another Location

Airport or City:

Trip Planner

Search our weather history database for the weather conditions in past years. The results will help you decide how hot, cold, wet, or windy it might be!

Date:

Astronomy

Aug. 22, 2012 Rise Set
Actual Time 7:09 AM CDT 8:27 PM CDT
Civil Twilight 6:42 AM CDT 8:54 PM CDT
Nautical Twilight 6:10 AM CDT 9:26 PM CDT
Astronomical Twilight 5:36 AM CDT 10:00 PM CDT
Moon 12:39 PM CDT (8/22) 11:22 PM CDT (8/22)
Length of Visible Light 14h 11m
Length of Day
13h 17m
Waxing Crescent, 29% of the Moon is Illuminated
Aug 22
Waxing Crescent
Aug 24
First Quarter
Aug 31
Full
Sep 8
Last Quarter
Sep 15
New

Hourly Weather History & Observations

Time (CDT) Temp. Heat Index Dew Point Humidity Pressure Visibility Wind Dir Wind Speed Gust Speed Precip Events Conditions
12:53 AM 64.9 °F - 60.1 °F 84% 30.00 in 10.0 mi SSW 10.4 mph - N/A   Clear
1:53 AM 64.0 °F - 60.1 °F 87% 29.99 in 10.0 mi South 8.1 mph - N/A   Clear
2:53 AM 63.0 °F - 60.1 °F 90% 29.99 in 9.0 mi South 6.9 mph - N/A   Clear
3:53 AM 62.1 °F - 59.0 °F 90% 29.98 in 8.0 mi South 6.9 mph - N/A   Clear
4:53 AM 61.0 °F - 59.0 °F 93% 29.97 in 6.0 mi SSW 6.9 mph - N/A   Clear
5:53 AM 60.1 °F - 57.9 °F 93% 29.99 in 5.0 mi South 4.6 mph - N/A   Clear
6:53 AM 60.1 °F - 57.9 °F 93% 29.98 in 4.0 mi South 5.8 mph - N/A   Clear
7:53 AM 61.0 °F - 57.9 °F 90% 29.99 in 4.0 mi South 6.9 mph - N/A   Clear
8:53 AM 66.9 °F - 60.1 °F 79% 29.98 in 9.0 mi SSW 12.7 mph - N/A   Clear
9:53 AM 72.0 °F - 60.1 °F 66% 29.97 in 10.0 mi South 17.3 mph - N/A   Clear
10:53 AM 75.0 °F - 60.1 °F 60% 29.96 in 10.0 mi South 19.6 mph 24.2 mph N/A   Clear
11:53 AM 78.1 °F - 60.1 °F 54% 29.94 in 10.0 mi South 20.7 mph 27.6 mph N/A   Clear
12:53 PM 82.0 °F 82.4 °F 60.1 °F 47% 29.92 in 10.0 mi South 19.6 mph 28.8 mph N/A   Partly Cloudy
1:53 PM 84.0 °F 83.8 °F 59.0 °F 43% 29.89 in 10.0 mi South 19.6 mph 31.1 mph N/A   Clear
2:53 PM 86.0 °F 85.0 °F 57.9 °F 38% 29.86 in 10.0 mi SSW 19.6 mph 26.5 mph N/A   Clear
3:53 PM 88.0 °F 86.7 °F 57.0 °F 35% 29.83 in 10.0 mi SSW 18.4 mph 29.9 mph N/A   Clear
4:53 PM 87.1 °F 86.5 °F 59.0 °F 39% 29.82 in 10.0 mi SSE 19.6 mph 26.5 mph N/A   Clear
5:53 PM 84.9 °F 84.8 °F 60.1 °F 43% 29.83 in 10.0 mi South 20.7 mph 27.6 mph N/A   Clear
6:53 PM 81.0 °F 81.7 °F 61.0 °F 50% 29.83 in 10.0 mi South 16.1 mph 25.3 mph N/A   Clear
7:53 PM 79.0 °F - 61.0 °F 54% 29.82 in 10.0 mi South 16.1 mph 23.0 mph N/A   Clear
8:53 PM 75.9 °F - 62.1 °F 62% 29.84 in 10.0 mi SSE 15.0 mph - N/A   Clear
9:53 PM 75.9 °F - 62.1 °F 62% 29.86 in 10.0 mi South 13.8 mph 23.0 mph N/A   Clear
11:53 PM 73.0 °F - 63.0 °F 71% 29.86 in 10.0 mi South 12.7 mph - N/A   Clear